Miscellaneous Local Product
Issued by NWS North Platte, NE

Home | Current Version | Previous Version | Text Only | Print | Product List | Glossary On
Versions: 1 2 3 4 5 6 7 8 9 10 11 12 13 14 15 16 17 18 19 20 21 22 23 24 25 26 27 28 29 30 31 32 33 34 35 36 37 38 39 40 41 42 43 44 45 46 47 48 49 50
000
AXUS43 KLBF 250910
MISLBF


WESTERN AND NORTH CENTRAL NEBRASKA HOURLY WEATHER ROUNDUP
NATIONAL WEATHER SERVICE NORTH PLATTE NE
400 AM CDT MON SEP 25 2017

NOTE: "FAIR" INDICATES FEW OR NO CLOUDS BELOW 12,000 FEET WITH NO
SIGNIFICANT WEATHER AND/OR OBSTRUCTIONS TO VISIBILITY.

NOTE: STATIONS NOT REPORTING VARIABLES SUCH AS SKY/WEATHER OR
PRESSURE ARE PROVIDED BY RAWS AND APRS NETWORKS AND ARE NOT UNDER
NATIONAL WEATHER SERVICE QUALITY CONTROL.

...OBSERVATIONS IN AND NEAR THE EASTERN PANHANDLE OF NEBRASKA...

CITY           SKY/WX    TMP DP  RH WIND       PRES   REMARKS
PINE RIDGE     LGT RAIN  45  45 100 CALM      30.15R
GORDON         LGT RAIN  44  43  95 N8        30.13R
CHADRON        CLOUDY    45  42  89 E6        30.12F
ALLIANCE       CLOUDY    43  42  97 N12       30.10F
SIDNEY         CLOUDY    45  44  97 N15       30.09F FOG
CRESCENT LAKE    N/A     44  44 100 N9          N/A
$$

...OBSERVATIONS IN NORTHERN NEBRASKA AND FAR SOUTHERN SOUTH DAKOTA...

CITY           SKY/WX    TMP DP  RH WIND       PRES   REMARKS
WINNER         CLOUDY    51  48  89 N10       30.06F
VALENTINE      CLOUDY    49  46  90 NE10      30.08R
THEDFORD       RAIN      48  47  97 CALM      30.10R
AINSWORTH      HVY RAIN  47  47  99 NE7       30.07F
O`NEILL        RAIN      50  50 100 N14G20    30.01F
ORD            LGT RAIN  51  48  89 N9        30.00S
BROKEN BOW     LGT RAIN  51  51 100 N8        30.02R
HALSEY           N/A     47  47 100 N7G16       N/A
BUTTE            N/A     49  47  95 N8          N/A
CHAMBERS         N/A     50  49  97 N3          N/A
EWING            N/A     51  50  96 MISG        N/A
$$

...OBSERVATIONS IN SOUTHWEST NEBRASKA AND FAR NORTHEAST COLORADO...

CITY           SKY/WX    TMP DP  RH WIND       PRES   REMARKS
WRAY           CLOUDY   N/A N/A N/A N9        30.05R
HOLYOKE        CLOUDY    52  48  87 N10       30.05S
IMPERIAL       CLOUDY    49  47  93 N8        30.03R
OGALLALA       CLOUDY    50  48  95 N9        30.05S
NORTH PLATTE   LGT RAIN  50  48  93 N12       30.02F FOG
MCCOOK         RAIN      52  52 100 N15       29.98F FOG
LEXINGTON      CLOUDY    52  50  93 N9G16     29.97F
STAPLETON        N/A     47  46  97 CALM        N/A
GOTHENBURG       N/A     50  47  90 NE5         N/A
CALLAWAY         N/A     51  50  97 NE5         N/A
$$

...OBSERVATIONS IN CENTRAL LINCOLN COUNTY AREA...

CITY           SKY/WX    TMP DP  RH WIND       PRES   REMARKS
N.P. AIRPORT   LGT RAIN  50  48  93 N12       30.02F FOG
N.P. DOWNTOWN    N/A     48  47  95 NE8G15      N/A
N.P. SOUTHEAST   N/A     48  47  95 MISG        N/A
N.P. HILLCREST   N/A     48  47  96 NE20G26     N/A
$$

...SOME OBSERVATIONS FROM AROUND THE REGION...

CITY           SKY/WX    TMP DP  RH WIND       PRES   REMARKS
DENVER         CLOUDY    45  43  93 NE9       30.08S
LIMON            N/A    N/A N/A N/A MISG        N/A
ASPEN          CLOUDY    29  22  75 S5        30.11F WCI  24
LARAMIE        FOG       29  27  92 S6        30.09F VSB 1/2 WCI  23
CASPER         CLOUDY    34  33  96 NW6       30.11R WCI  29
CHEYENNE       CLOUDY    39  38  96 N9        30.10S WCI  33
SCOTTSBLUFF    CLOUDY    43  40  89 E7        30.08F
GRAND ISLAND   HVY RAIN  53  53 100 NE22      29.96F FOG
OMAHA          CLOUDY    63  60  90 NW13      29.93R
SIOUX FALLS    RAIN      54  54 100 N10       30.00F
PIERRE         CLOUDY    49  45  86 NE7       30.09S
BISMARCK       CLOUDY    49  46  90 NW6       30.13R
KANSAS CITY    PTCLDY    68  65  90 S9        29.92F
HILL CITY      LGT RAIN  58  57  97 NE9       29.90F
WICHITA        CLOUDY    71  66  84 SE9       29.89S
DODGE CITY     TSTM      67  66  97 S8        29.89F FOG
OKLAHOMA CITY  MOCLDY    70  64  81 S8        29.90S
DALLAS         PTCLDY    76  68  76 S9        29.87S
AMARILLO       CLOUDY    67  65  93 SE12      29.92F
$$




USA.gov is the U.S. government's official web portal to all federal, state and local government web resources and services.